Change the Weather History Date:

Tuesday, February 26, 2013

  Actual Average Record
Temperature  
Mean Temperature 34 °F -  
Max Temperature 48 °F 45 °F 53 °F (2012)
Min Temperature 21 °F 33 °F 21 °F (2013)
Degree Days  
Heating Degree Days 30    
Moisture  
Dew Point 26 °F    
Average Humidity 87    
Maximum Humidity 100    
Minimum Humidity 53    
Precipitation  
Precipitation 0.00 in - - ()
Sea Level Pressure  
Sea Level Pressure 30.65 in    
Wind  
Wind Speed 2 mph ()    
Max Wind Speed 5 mph    
Max Gust Speed -    
Visibility 5.8 miles    
Events Fog    
Averages and records for this station are not official NWS values.
T = Trace of Precipitation, MM = Missing Value Source: Averaged Metar Reports

Daily Weather History Graph

Daily Weather History Graph

Search for Another Location

Airport or City:

Trip Planner

Search our weather history database for the weather conditions in past years. The results will help you decide how hot, cold, wet, or windy it might be!

Date:

Astronomy

Feb. 26, 2013 Rise Set
Actual Time 7:17 AM GMT 5:41 PM GMT
Civil Twilight 6:38 AM GMT 6:20 PM GMT
Nautical Twilight 5:53 AM GMT 7:05 PM GMT
Astronomical Twilight 5:08 AM GMT 7:50 PM GMT
Moon 7:06 PM GMT (2/26) 6:55 AM GMT (2/26)
Length of Visible Light 11h 41m
Length of Day
10h 23m
Full, 100% of the Moon is Illuminated
Feb 26
Full
Mar 4
Last Quarter
Mar 11
New
Mar 19
First Quarter
Mar 27
Full

Hourly Weather History & Observations

Time (GMT) Temp. Windchill Dew Point Humidity Pressure Visibility Wind Dir Wind Speed Gust Speed Precip Events Conditions
12:20 AM 23.0 °F - 23.0 °F 100% 30.63 in 6.2 mi Calm Calm - N/A   Unknown
12:50 AM 23.0 °F - 23.0 °F 100% 30.66 in 1.2 mi SSW 2.3 mph - N/A   Mist
1:20 AM 23.0 °F - 23.0 °F 100% 30.66 in 6.2 mi Calm Calm - N/A   Unknown
1:50 AM 24.8 °F 19.1 °F 23.0 °F 93% 30.66 in 6.2 mi SSW 4.6 mph - N/A   Unknown
2:20 AM 23.0 °F 18.4 °F 23.0 °F 100% 30.66 in 6.2 mi WSW 3.5 mph - N/A   Partly Cloudy
2:50 AM 23.0 °F 18.4 °F 21.2 °F 93% 30.63 in 6.2 mi SSW 3.5 mph - N/A   Partly Cloudy
3:20 AM 23.0 °F - 21.2 °F 93% 30.63 in 6.2 mi SSW 2.3 mph - N/A   Partly Cloudy
3:50 AM 23.0 °F 18.4 °F 21.2 °F 93% 30.63 in 6.2 mi SW 3.5 mph - N/A   Partly Cloudy
4:20 AM 23.0 °F - 21.2 °F 93% 30.63 in 6.2 mi WSW 2.3 mph - N/A   Partly Cloudy
4:50 AM 23.0 °F - 23.0 °F 100% 30.63 in 6.2 mi Calm Calm - N/A   Partly Cloudy
5:20 AM 21.2 °F - 21.2 °F 100% 30.66 in 6.2 mi Calm Calm - N/A   Partly Cloudy
5:50 AM 21.2 °F - 21.2 °F 100% 30.66 in 6.2 mi SW 2.3 mph - N/A   Partly Cloudy
6:20 AM 23.0 °F - 21.2 °F 93% 30.66 in - Calm Calm - N/A   Clear
6:50 AM 21.2 °F - 21.2 °F 100% 30.66 in - SW 2.3 mph - N/A   Clear
7:20 AM 23.0 °F - 21.2 °F 93% 30.66 in - SW 2.3 mph - N/A   Clear
7:50 AM 24.8 °F - 23.0 °F 93% 30.66 in - SSW 2.3 mph - N/A   Clear
8:20 AM 23.0 °F 18.4 °F 23.0 °F 100% 30.66 in - SSW 3.5 mph - N/A   Clear
8:50 AM 30.2 °F - 28.4 °F 93% 30.66 in - SSW 2.3 mph - N/A   Clear
9:20 AM 32.0 °F - 28.4 °F 87% 30.66 in - Calm Calm - N/A   Clear
9:50 AM 32.0 °F 27.5 °F 30.2 °F 93% 30.66 in - WSW 4.6 mph - N/A   Clear
10:20 AM 35.6 °F - 32.0 °F 87% 30.69 in - WSW 2.3 mph - N/A   Clear
10:50 AM 37.4 °F - 32.0 °F 81% 30.69 in - Variable 2.3 mph - N/A   Clear
11:20 AM 41.0 °F - 33.8 °F 76% 30.69 in - Calm Calm - N/A   Clear
11:50 AM 42.8 °F - 33.8 °F 70% 30.66 in - Variable 2.3 mph - N/A   Clear
12:20 PM 42.8 °F - 33.8 °F 70% 30.66 in - Variable 2.3 mph - N/A   Clear
12:50 PM 44.6 °F 43.1 °F 33.8 °F 66% 30.66 in - Variable 3.5 mph - N/A   Clear
1:20 PM 46.4 °F - 30.2 °F 53% 30.66 in - Calm Calm - N/A   Clear
1:50 PM 46.4 °F 44.3 °F 33.8 °F 62% 30.63 in - North 4.6 mph - N/A   Clear
2:20 PM 48.2 °F - 35.6 °F 62% 30.63 in - Variable 2.3 mph - N/A   Clear
2:50 PM 46.4 °F 44.3 °F 33.8 °F 62% 30.63 in - ENE 4.6 mph - N/A   Clear
3:20 PM 46.4 °F 44.3 °F 35.6 °F 66% 30.63 in - ENE 4.6 mph - N/A   Clear
3:50 PM 44.6 °F 42.2 °F 33.8 °F 66% 30.63 in - NE 4.6 mph - N/A   Clear
4:20 PM 44.6 °F 43.1 °F 33.8 °F 66% 30.63 in - NNE 3.5 mph - N/A   Clear
4:50 PM 41.0 °F 38.0 °F 33.8 °F 76% 30.63 in 6.2 mi NNE 4.6 mph - N/A   Partly Cloudy
5:20 PM 37.4 °F 34.9 °F 32.0 °F 81% 30.63 in - East 3.5 mph - N/A   Clear
5:50 PM 35.6 °F 32.8 °F 30.2 °F 81% 30.63 in - ENE 3.5 mph - N/A   Clear
6:20 PM 28.4 °F - 26.6 °F 93% 30.63 in - Calm Calm - N/A   Clear
6:50 PM 28.4 °F - 26.6 °F 93% 30.63 in - SW 2.3 mph - N/A   Clear
7:20 PM 26.6 °F - 24.8 °F 93% 30.63 in - Calm Calm - N/A   Clear
7:50 PM 24.8 °F - 24.8 °F 100% 30.66 in - Calm Calm - N/A   Clear
8:20 PM 24.8 °F - 24.8 °F 100% 30.66 in - SSW 2.3 mph - N/A   Clear
8:50 PM 23.0 °F - 21.2 °F 93% 30.66 in - Calm Calm - N/A   Clear
9:20 PM 23.0 °F - 21.2 °F 93% 30.66 in 6.2 mi Calm Calm - N/A Fog Shallow Fog
9:50 PM 23.0 °F - 21.2 °F 93% 30.66 in 5.0 mi Variable 2.3 mph - N/A   Unknown
10:20 PM 21.2 °F - 21.2 °F 100% 30.66 in 4.3 mi Calm Calm - N/A   Unknown
10:50 PM 23.0 °F - 21.2 °F 93% 30.66 in 6.2 mi Calm Calm - N/A   Unknown
11:20 PM 21.2 °F 16.4 °F 21.2 °F 100% 30.66 in 6.2 mi SW 3.5 mph - N/A   Unknown
11:50 PM 24.8 °F 19.1 °F 23.0 °F 93% 30.66 in 6.2 mi SW 4.6 mph - N/A   Unknown